www.pogodaiklimat.ru

Погода и климат >> Архив погоды >> Россия >> Свердловская область >> Екатеринбург


АРХИВ ПОГОДЫ в Екатеринбурге

Время (UTC), дата Ветер
(напр.,м/с)
 
Видим.   Явления Облачность Т
(С)
Тd
(С)
f
(%)
Тe
(С)
Тes
(С)
Комфортность P
(гПа)
Po
(гПа)
Тmin
(С)
Tmax
(С)
R
(мм)
R24
(мм)
S
(см)
00 12.11 З 5 10 км ясно -9.0 -15.1 61 -17 -17 холодно 1042.1 1005.1
03 12.11 З 6-11
{11}
10 км ясно -8.9 -15.8 57 -17 -17 холодно 1042.4 1005.4 -9.4 <0.5
06 12.11 З 5
{13}
20 км 4/0
[Ci fib]
-8.3 -17.1 49 -16 -15 холодно 1042.1 1005.2
09 12.11 З 5-11
{14}
10 км 8/0
[Cc]
-5.2 -16.9 39 -12 -11 прохладно 1040.3 1003.8
12 12.11 СЗ 6-12
{14}
10 км 10/0
[Ac und Cc]
-5.8 -16.2 44 -13 -13 прохладно 1039.9 1003.4
15 12.11 З 6-10
{16}
10 км 10/3 600 м
[Sc Ci fib]
-5.9 -15.4 47 -13 -13 прохладно 1039.8 1003.2 -4.6
18 12.11 З 5
{13}
10 км 10/0
[Ac As]
-6.5 -15.1 50 -13 -13 прохладно 1038.9 1002.4
21 12.11 З 5
{12}
10 км 10/0
[Ac As]
-6.4 -14.7 52 -13 -13 прохладно 1038.8 1002.2
00 13.11 З 5-12
{12}
10 км 9/0
[Ac und]
-6.7 -14.7 53 -14 -14 прохладно 1038.5 1002.0
03 13.11 З 5-11
{12}
10 км 10/0
[Ac trans Cc]
-7.6 -15.3 54 -15 -15 прохладно 1039.1 1002.4 -7.6
06 13.11 З 5
{11}
50 км 6/0
[Ac trans Cs]
-7.0 -16.1 48 -14 -14 прохладно 1039.6 1002.9 -8.0
09 13.11 З 5
{11}
50 км 8/0
[Cs]
-4.5 -17.2 36 -11 -10 по сезону 1038.2 1002.0
12 13.11 З 5
{11}
20 км ясно -4.3 -18.3 33 -10 -10 по сезону 1037.8 1001.5
15 13.11 З 4
{12}
10 км 6/0
[Cs]
-5.8 -16.5 43 -12 -12 прохладно 1037.6 1001.2 -4.1
18 13.11 З 4
{10}
10 км ясно -6.2 -17.1 42 -12 -12 по сезону 1036.0 999.6
21 13.11 З 5
{10}
10 км ясно -6.6 -17.2 43 -13 -13 прохладно 1035.1 998.7
00 14.11 З 4
{10}
10 км ясно -7.7 -16.5 49 -14 -14 прохладно 1034.8 998.2
03 14.11 З 4
{11}
10 км 3/0
[Cs]
-7.3 -17.5 44 -14 -14 прохладно 1034.2 997.7 -7.9
06 14.11 З 5-11
{16}
20 км 8/0
[Cs]
-4.8 -18.6 33 -11 -11 по сезону 1033.0 996.9
09 14.11 З 7-15
{15}
50 км 8/0
[Cs]
-2.0 -19.2 25 -8 -8 по сезону 1031.7 996.0
12 14.11 З 5-11
{15}
20 км 6/1 600 м
[Sc Ci fib]
-2.8 -18.7 28 -8 -8 по сезону 1031.5 995.7
15 14.11 З 6-10
{12}
10 км 9/6 600 м
[Sc Cs]
-3.1 -18.4 30 -9 -9 по сезону 1031.4 995.5 -1.4
18 14.11 З 5
{13}
10 км 9/4 600 м
[Sc Cs]
-3.8 -16.7 36 -10 -10 по сезону 1031.7 995.8
21 14.11 З 4
{11}
10 км 6/0
[Cs]
-5.3 -14.1 50 -11 -11 по сезону 1032.5 996.3
00 15.11 З 5-11
{11}
10 км 9/0
[Cs]
-5.5 -13.4 54 -12 -12 по сезону 1033.2 997.0
03 15.11 З 5
{11}
10 км 10/0
[Cs]
-6.7 -14.0 56 -14 -14 прохладно 1034.0 997.5 -6.7
06 15.11 З 4
{11}
20 км 10/0
[Cs]
-6.1 -14.1 53 -12 -12 по сезону 1035.4 999.0 -7.1
09 15.11 З 4
{11}
50 км 10/8 1000 м
[Sc Cs]
-5.1 -13.0 54 -11 -11 по сезону 1036.8 1000.5
12 15.11 З 4
{10}
10 км 10/8 1000 м
[Sc Cs]
-4.0 -11.3 57 -10 -10 по сезону 1038.1 1001.9
15 15.11 З 4
{10}
10 км 10/8 1000 м
[Sc Cs]
-4.5 -10.9 61 -10 -10 по сезону 1039.7 1003.4 -3.9
18 15.11 СЗ 3 10 км 10/8 1000 м
[Sc Cs]
-4.9 -9.7 69 -10 -10 по сезону 1040.6 1004.2
21 15.11 З 2 10 км 10/8 1000 м
[Sc Cs]
-4.9 -9.4 71 -9 -9 по сезону 1041.4 1005.0
00 16.11 З 2 10 км 10/8 1000 м
[Sc Cs]
-4.9 -9.3 71 -9 -9 по сезону 1041.5 1005.1
03 16.11 З 3 10 км слабый ливневой снег 10/10 600 м
[Cb cap]
-4.9 -8.3 77 -10 -10 по сезону 1041.1 1004.7 -5.1 0.0
06 16.11 З 4 10 км {ливн. осадки} 10/4 600 м
[Cb calv Ac As]
-3.8 -8.2 71 -10 -10 по сезону 1040.5 1004.2
09 16.11 З 3 10 км {ливн. осадки} 10/0
[Ac As]
-3.4 -6.5 79 -9 -8 по сезону 1038.8 1002.7
12 16.11 З 2 10 км {ливн. осадки} 10/3 600 м
[Sc Ac As]
-2.9 -6.3 77 -7 -7 по сезону 1036.4 1000.4
15 16.11 З 4 10 км 10/0
[Ac As]
-1.9 -7.7 64 -7 -7 по сезону 1032.7 996.9 -1.9 0.0
18 16.11 З 5
{10}
10 км слабый ливневой снег 10/6 600 м
[Cb calv Ac As]
-2.0 -7.0 69 -8 -8 по сезону 1029.8 994.1
21 16.11 З 6-10
{12}
10 км слабый ливневой снег 10/10 600 м
[Cb calv]
-2.2 -7.9 65 -9 -9 по сезону 1027.2 991.6
00 17.11 З 4
{12}
10 км позёмок {ливн. осадки, метель} 10/8 600 м
[Sc Ac As]
-2.7 -7.1 72 -8 -8 по сезону 1025.5 989.9
03 17.11 З 4
{11}
10 км {ливн. осадки, метель} 10/3 600 м
[Sc diur, vesp Ac As]
-2.8 -5.6 81 -9 -9 по сезону 1024.3 988.8 -3.1 0.5 1
06 17.11 З 4 20 км слабый ливневой снег 10/10 600 м
[Cb cap]
-2.4 -5.6 79 -8 -8 по сезону 1023.5 988.0
09 17.11 З 5 20 км в посл. час ливневой снег 10/10 600 м
[Cb calv]
-1.2 -4.7 77 -7 -7 по сезону 1022.2 986.9
12 17.11 З 3 10 км {ливн. осадки} 10/10 600 м
[Sc]
-1.2 -4.4 79 -6 -6 по сезону 1022.0 986.7
15 17.11 З 2 10 км 10/10 600 м
[Sc]
-1.3 -4.5 79 -5 -5 по сезону 1021.7 986.4 -1.1 0.2
18 17.11 З 4 10 км 10/10 600 м
[Sc]
-2.0 -5.0 80 -8 -8 по сезону 1021.1 985.8
21 17.11 ЮЗ 2 10 км 10/10 600 м
[Sc]
-2.5 -5.6 79 -6 -6 по сезону 1020.5 985.1
00 18.11 ЮЗ 2 10 км 10/10 600 м
[Sc]
-2.8 -5.9 79 -7 -7 по сезону 1020.3 984.9
03 18.11 Ю 2 10 км {ливн. осадки} 10/10 600 м
[Cb calv]
-2.9 -6.2 78 -7 -7 по сезону 1020.3 984.9 -3.0 1
06 18.11 Ю 2 4000 м слабый снег {ливн. осадки} 10/0
[As op]
-3.0 -4.9 87 -7 -7 по сезону 1020.5 985.1 -3.2
09 18.11 Ю 2 10 км {снег} 10/10 600 м
[Sc]
-1.7 -4.1 84 -6 -6 по сезону 1020.6 985.4
12 18.11 Ю 2 4000 м слабый снег 10/0 600 м
[As op]
-1.6 -3.0 90 -6 -6 по сезону 1020.7 985.5
15 18.11 ЮЗ 2 4000 м слабый снег 10/0
[As op]
-1.5 -3.0 89 -5 -5 по сезону 1020.6 985.4 -1.4 2
18 18.11 ЮЗ 2 10 км {снег} 10/10 600 м
[Sc]
-1.6 -3.3 88 -6 -6 по сезону 1020.9 985.6
21 18.11 З 3 10 км 10/10 600 м
[Sc]
-2.0 -4.1 86 -7 -7 по сезону 1021.4 986.1

 

Местоположение метеостанции Екатеринбург (Свердловская область, Россия): широта 56.83 долгота 60.63 высота над уровнем моря 281 м.

В архиве по умолчанию представлена погода в Екатеринбурге за последнюю неделю. Архивные данные за месяц целиком и за предыдущие месяцы, начиная с января 2011 года, Вы можете получить, выбрав интересующий диапазон дат из раскрывающегося списка и нажав кнопку "Ввод!".


*Определитесь, кто Вы:
робот инопланетянин человек

Внимание! Время в таблицах - всемирное. Для получения местного времени необходимо прибавить поправку, которая в Екатеринбурге равна 5 ч.

Смотрите также архив погоды в соседних городах и на ближайших метеорологических станциях:

Погода в Екатеринбурге (Бот.сад) (Свердловская область, Россия) (5 км)
Погода в Верхнем Дуброво (Свердловская область, Россия) (29 км)
Погода в Сысерти (Свердловская область, Россия) (38 км)
Погода в Ревде (Свердловская область, Россия) (40 км)
Погода в Мариинске (Свердловская область, Россия) (52 км)
Погода в Невьянске (Свердловская область, Россия) (78 км)
Погода в Верхнем Уфалее (Челябинская область, Россия) (86 км)
Погода в Каменск-Уральском (Свердловская область, Россия) (88 км)
Погода в Бисерти (Свердловская область, Россия) (95 км)
Погода в Артемовском (Свердловская область, Россия) (98 км)

Пояснения к столбцам:

Ветер - указаны скорость ветра в м/с - средняя за 10 мин, порывы в срок и между сроками (в фигурных скобках) и направление, откуда дует ветер: С - северный, СВ - северо-восточный, В - восточный, ЮВ - юго-восточный, Ю - южный, ЮЗ - юго-западный, З - западный, СЗ - северо-западный.
Видимость - горизонтальная дальность видимости в метрах или километрах. При видимости от 1 до 10 км при отсутствии осадков обычно наблюдается дымка, при ухудшении видимости до 1 км и менее - туман. В сухую погоду видимость может ухудшаться дымом, пылью или мглою.
Явления - указаны атмосферные явления, наблюдавшиеся в срок или в последний час перед сроком; фигурными скобками обозначены явления, наблюдавшиеся между сроками (за 1-3 часа до срока); квадратными скобками обозначены град или гололедные отложения с указанием их диаметра в мм.
Облачность - указаны через наклонную черту общая и нижняя облачность в баллах и высота нижней границы облаков в метрах; квадратными скобками обозначены формы облаков: Ci - перистые, Cs - перисто-слоистые, Cc - перисто-кучевые, Ac - высококучевые, As - высокослоистые, Sc - слоисто-кучевые, Ns - слоисто-дождевые, Cu - кучевые, Cb - кучево-дождевые. Подробнее классификацию облаков см. в Атласе облаков (PDF).
T - Температура воздуха - температура, измеренная на высоте 2 м над землей.
Td - Температура точки росы - температура, при понижении до которой содержащийся в воздухе водяной пар достигнет насыщения.
f - Относительная влажность воздуха - влажноcть воздуха, измеренная на высоте 2 м над землей.
Te - Эффективная температура - температура, которую ощущает одетый по сезону человек в тени. Характеристика душности погоды. При расчете учитывается влияние влажности воздуха и скорости ветра на теплоощущения человека.
Tes - Эффективная температура на солнце - температура, которую ощущает человек, с поправкой на солнечный нагрев. Характеристика знойности погоды. Зависит от высоты солнца над горизонтом, облачности и скорости ветра. Ночью, в пасмурную погоду, а также при ветре 12 м/с и более поправка равна нулю.
P - Атмосферное давление - приведенное к уровню моря атмосферное давление.
Po - Атмосферное давление - измеренное на уровне метеостанции атмосферное давление.
Tmin - Минимальная температура - минимум температуры воздуха на высоте 2 м над землей.
Tmax - Максимальная температура - максимум температуры воздуха на высоте 2 м над землей.
R - Количество осадков - Количество выпавших осадков за период времени, мм. При наведении курсора мыши на число - период времени, за который выпало указанное количество осадков.
R24 - Количество осадков - Количество выпавших осадков за 24 часа, мм.
S - Снежный покров - Высота снежного покрова, см. При наведении курсора мыши на число - состояние снежного покрова и степень покрытия местности в баллах.